User: anonymous   Login
Location: Unspecified
(0.0000°N, 0.0000°E)
Time: 01:27:39
(UTC+00:00)
Language:

SO-67 - Orbit

View from above orbital plane
View from above orbital plane
View from above satellite
View from above satellite

Ground track
Ground track

The orbit data is extracted from the following two-line orbital elements,

1 35870U 09049F   18109.87407470  .00005129  00000-0  71693-4 0  9998
2 35870  97.0859 129.3188 0003235  52.6432  68.5335 15.57289867480897
Epoch (UTC): 19 April 2018 20:58:40
Eccentricity: 0.0003235
inclination: 97.0859°
perigee height: 393 km
apogee height: 398 km
right ascension of ascending node: 129.3188°
argument of perigee: 52.6432°
revolutions per day: 15.57289867
mean anomaly at epoch: 68.5335°
orbit number at epoch: 48089

The dashed part of the orbit path shows where the satellite is in the earth's shadow,  

DLR